Time,TemperatureF,DewpointF,PressureIn,WindDirection,WindDirectionDegrees,WindSpeedMPH,WindSpeedGustMPH,Humidity,HourlyPrecipIn,Conditions,Clouds,dailyrainin,SoftwareType,DateUTC
2013-10-09 00:21:00,42.0,40.0,30.00,SW,221,0.0,0.0,93,0.00,,,0.04,,2013-10-09 07:21:00,
2013-10-09 00:41:00,42.0,40.0,30.00,SW,221,0.0,0.0,93,0.00,,,0.04,,2013-10-09 07:41:00,
2013-10-09 00:52:00,42.0,40.0,29.99,SW,221,0.0,0.0,93,0.00,,,0.04,,2013-10-09 07:52:00,
2013-10-09 01:22:00,41.0,39.0,30.00,SW,222,0.0,0.0,93,0.00,,,0.04,,2013-10-09 08:22:00,
2013-10-09 01:31:00,40.0,38.0,30.00,SW,221,0.0,0.0,93,0.00,,,0.04,,2013-10-09 08:31:00,
2013-10-09 01:42:00,41.0,39.0,30.00,SW,222,0.0,0.0,93,0.00,,,0.04,,2013-10-09 08:42:00,
2013-10-09 01:53:00,40.0,38.0,30.00,SW,221,0.0,0.0,93,0.00,,,0.04,,2013-10-09 08:53:00,
2013-10-09 02:02:00,40.0,38.0,30.00,SW,221,0.0,0.0,93,0.00,,,0.04,,2013-10-09 09:02:00,
2013-10-09 02:11:00,40.0,38.0,30.00,SW,221,0.0,0.0,93,0.00,,,0.04,,2013-10-09 09:11:00,
2013-10-09 02:22:00,40.0,38.0,30.00,SW,221,0.0,0.0,93,0.00,,,0.04,,2013-10-09 09:22:00,
2013-10-09 15:24:00,62.0,43.0,29.97,ENE,67,3.0,9.0,49,0.00,,,0.00,,2013-10-09 22:24:00,
2013-10-09 15:43:00,61.0,42.0,29.97,ENE,78,1.0,12.0,49,0.00,,,0.00,,2013-10-09 22:43:00,
2013-10-09 15:53:00,61.0,41.0,29.97,North,11,5.0,11.0,47,0.00,,,0.00,,2013-10-09 22:53:00,
2013-10-09 16:11:00,61.0,41.0,29.97,NE,43,1.0,14.0,48,0.00,,,0.00,,2013-10-09 23:11:00,
2013-10-09 16:22:00,61.0,43.0,29.97,NW,315,1.0,7.0,51,0.00,,,0.00,,2013-10-09 23:22:00,
2013-10-09 16:53:00,60.0,41.0,29.97,WNW,284,4.0,10.0,50,0.00,,,0.00,,2013-10-09 23:53:00,
2013-10-09 17:12:00,60.0,43.0,29.97,North,5,2.0,7.0,53,0.00,,,0.00,,2013-10-10 00:12:00,
2013-10-09 17:22:00,60.0,43.0,29.96,ENE,76,2.0,4.0,53,0.00,,,0.00,,2013-10-10 00:22:00,
2013-10-09 17:42:00,60.0,42.0,29.96,NNE,24,3.0,9.0,51,0.00,,,0.00,,2013-10-10 00:42:00,
2013-10-09 17:52:00,59.0,41.0,29.96,NW,311,3.0,9.0,52,0.00,,,0.00,,2013-10-10 00:52:00,
2013-10-09 18:11:00,59.0,42.0,29.96,NW,304,1.0,5.0,54,0.00,,,0.00,,2013-10-10 01:11:00,
2013-10-09 18:21:00,58.0,42.0,29.96,NW,312,1.0,5.0,55,0.00,,,0.00,,2013-10-10 01:21:00,
2013-10-09 18:42:00,58.0,43.0,29.95,NNW,327,0.0,4.0,57,0.00,,,0.00,,2013-10-10 01:42:00,
2013-10-09 18:52:00,57.0,44.0,29.95,NNW,327,0.0,0.0,61,0.00,,,0.00,,2013-10-10 01:52:00,
2013-10-09 19:12:00,56.0,44.0,29.95,NNW,327,0.0,0.0,63,0.00,,,0.00,,2013-10-10 02:12:00,
2013-10-09 19:22:00,54.0,44.0,29.95,NNW,327,0.0,0.0,68,0.00,,,0.00,,2013-10-10 02:22:00,
2013-10-09 20:12:00,50.0,43.0,29.95,NNW,327,0.0,1.0,76,0.00,,,0.00,,2013-10-10 03:12:00,
2013-10-09 20:22:00,49.0,43.0,29.96,WSW,257,0.0,1.0,79,0.00,,,0.00,,2013-10-10 03:22:00,
2013-10-09 20:44:00,49.0,43.0,29.96,WSW,257,0.0,0.0,80,0.00,,,0.00,,2013-10-10 03:44:00,
2013-10-09 20:55:00,48.0,43.0,29.96,WSW,257,0.0,1.0,82,0.00,,,0.00,,2013-10-10 03:55:00,
2013-10-09 21:13:00,47.0,42.0,29.95,WSW,257,0.0,1.0,83,0.00,,,0.00,,2013-10-10 04:13:00,
2013-10-09 21:24:00,47.0,42.0,29.96,WSW,257,0.0,1.0,84,0.00,,,0.00,,2013-10-10 04:24:00,
2013-10-09 21:31:00,46.0,42.0,29.96,WSW,257,0.0,0.0,86,0.00,,,0.00,,2013-10-10 04:31:00,
2013-10-09 21:44:00,47.0,42.0,29.96,WSW,257,0.0,0.0,84,0.00,,,0.00,,2013-10-10 04:44:00,
2013-10-09 21:54:00,46.0,42.0,29.96,WSW,257,0.0,0.0,86,0.00,,,0.00,,2013-10-10 04:54:00,
2013-10-09 22:03:00,46.0,42.0,29.96,WSW,257,0.0,0.0,86,0.00,,,0.00,,2013-10-10 05:03:00,
2013-10-09 22:12:00,46.0,42.0,29.96,WSW,257,0.0,0.0,86,0.00,,,0.00,,2013-10-10 05:12:00,
2013-10-09 22:22:00,46.0,42.0,29.96,WSW,257,0.0,0.0,86,0.00,,,0.00,,2013-10-10 05:22:00,